{"data":{"norad_id":62794,"intl_designator":"2025-016K","name":"QIANFAN-64","alt_names":[],"object_type":"PAYLOAD","status":"ACTIVE","operator":null,"country":"PRC","launch_date":"2025-01-23","launch_site_code":"TAISC","launch_vehicle":null,"mission":null,"orbit_class":"UNKNOWN","rcs_meters":null,"size_class":null,"mass_kg":null,"dimensions":null,"purposes":[],"wikipedia_slug":null,"has_3d_model":false,"image_url":null,"decayed_at":null,"tle_current":{"epoch":"2026-05-25T02:50:35.003616Z","epoch_age_seconds":61016,"freshness":"FRESH","line1":"1 62794U 25016K   26145.11846069  .00000122  00000+0  17047-3 0  9991","line2":"2 62794  88.9720  86.0666 0012080 224.1717 135.8470 13.51011917 69328","mean_motion":13.51011917,"eccentricity":0.001208,"inclination_deg":88.972,"raan_deg":86.0666,"arg_perigee_deg":224.1717,"mean_anomaly_deg":135.847,"bstar":0.00017047,"rev_number":6932,"period_min":106.5867726169,"perigee_km":1059.5422113739,"apogee_km":1077.5333776775,"semimajor_km":7446.6747945257,"source":"CELESTRAK","updated_at":"2026-05-25T13:38:03.252920Z"}}}